Вернуться в каталог

DMSP 5D-2 F9

USA 29

АктивенПогодаSSO
NORAD 18822·PAYLOAD·🇺🇸 United States

Запущен Feb 3, 1988 с Vandenberg Space Force Base

Loading…

Ближайшие Пролёты (ближайшие 24 часа)

TLE

СвежийSource: Space-Track

Эпоха: Sep 14, 2026, 09:20 UTC

1 18822U 88006A   26257.38913116  .00000148  00000-0  74965-4 0  9995
2 18822  98.3676  60.3202 0006772 156.7922 203.3567 14.28867042  9017

Отслеживайте DMSP 5D-2 F9 в реальном времени с AllMySat

Download on the App Store